Time,TemperatureF,DewpointF,PressureIn,WindDirection,WindDirectionDegrees,WindSpeedMPH,WindSpeedGustMPH,Humidity,HourlyPrecipIn,Conditions,Clouds,dailyrainin,SoftwareType,DateUTC
2013-03-05 00:00:00,63.0,51.0,30.17,NE,40,7.0,9.0,65,-99.99,,,-99.99,,2013-03-05 05:00:00,
2013-03-05 00:22:00,63.0,51.0,30.17,NE,40,7.0,9.0,65,-99.99,,,-99.99,,2013-03-05 05:22:00,
2013-03-05 00:31:00,63.0,51.0,30.17,NE,40,7.0,9.0,65,-99.99,,,-99.99,,2013-03-05 05:31:00,
2013-03-05 00:41:00,63.0,51.0,30.17,NE,40,7.0,9.0,65,-99.99,,,-99.99,,2013-03-05 05:41:00,
2013-03-05 00:51:00,63.0,51.0,30.17,NE,40,7.0,9.0,65,-99.99,,,-99.99,,2013-03-05 05:51:00,
2013-03-05 01:00:00,63.0,49.0,30.16,NNE,30,8.0,9.0,61,-99.99,,,-99.99,,2013-03-05 06:00:00,
2013-03-05 01:21:00,63.0,49.0,30.16,NNE,30,8.0,9.0,61,-99.99,,,-99.99,,2013-03-05 06:21:00,
2013-03-05 01:31:00,63.0,49.0,30.16,NNE,30,8.0,9.0,61,-99.99,,,-99.99,,2013-03-05 06:31:00,
2013-03-05 01:41:00,63.0,49.0,30.16,NNE,30,8.0,9.0,61,-99.99,,,-99.99,,2013-03-05 06:41:00,
2013-03-05 01:52:00,63.0,49.0,30.16,NNE,30,8.0,9.0,61,-99.99,,,-99.99,,2013-03-05 06:52:00,
2013-03-05 02:00:00,63.0,50.0,30.15,NNE,30,8.0,9.0,62,-99.99,,,-99.99,,2013-03-05 07:00:00,
2013-03-05 02:21:00,63.0,50.0,30.15,NNE,30,8.0,9.0,62,-99.99,,,-99.99,,2013-03-05 07:21:00,
2013-03-05 02:31:00,63.0,50.0,30.15,NNE,30,8.0,9.0,62,-99.99,,,-99.99,,2013-03-05 07:31:00,
2013-03-05 02:41:00,63.0,50.0,30.15,NNE,30,8.0,9.0,62,-99.99,,,-99.99,,2013-03-05 07:41:00,
2013-03-05 02:51:00,63.0,50.0,30.15,NNE,30,8.0,9.0,62,-99.99,,,-99.99,,2013-03-05 07:51:00,
2013-03-05 03:00:00,64.0,51.0,30.14,NE,40,10.0,11.0,62,-99.99,,,-99.99,,2013-03-05 08:00:00,
2013-03-05 03:21:00,64.0,51.0,30.14,NE,40,10.0,11.0,62,-99.99,,,-99.99,,2013-03-05 08:21:00,
2013-03-05 03:31:00,64.0,51.0,30.14,NE,40,10.0,11.0,62,-99.99,,,-99.99,,2013-03-05 08:31:00,
2013-03-05 03:41:00,64.0,51.0,30.14,NE,40,10.0,11.0,62,-99.99,,,-99.99,,2013-03-05 08:41:00,
2013-03-05 03:51:00,64.0,51.0,30.14,NE,40,10.0,11.0,62,-99.99,,,-99.99,,2013-03-05 08:51:00,
2013-03-05 04:00:00,65.0,52.0,30.13,ENE,60,9.0,10.0,64,-99.99,,,-99.99,,2013-03-05 09:00:00,
2013-03-05 04:31:00,65.0,52.0,30.13,ENE,60,9.0,10.0,64,-99.99,,,-99.99,,2013-03-05 09:31:00,
2013-03-05 04:42:00,65.0,52.0,30.13,ENE,60,9.0,10.0,64,-99.99,,,-99.99,,2013-03-05 09:42:00,
2013-03-05 04:51:00,65.0,52.0,30.13,ENE,60,9.0,10.0,64,-99.99,,,-99.99,,2013-03-05 09:51:00,
2013-03-05 05:00:00,64.0,53.0,30.14,ENE,60,10.0,11.0,67,-99.99,,,-99.99,,2013-03-05 10:00:00,
2013-03-05 05:21:00,64.0,53.0,30.14,ENE,60,10.0,11.0,67,-99.99,,,-99.99,,2013-03-05 10:21:00,
2013-03-05 05:31:00,64.0,53.0,30.14,ENE,60,10.0,11.0,67,-99.99,,,-99.99,,2013-03-05 10:31:00,
2013-03-05 05:41:00,64.0,53.0,30.14,ENE,60,10.0,11.0,67,-99.99,,,-99.99,,2013-03-05 10:41:00,
2013-03-05 05:51:00,64.0,53.0,30.14,ENE,60,10.0,11.0,67,-99.99,,,-99.99,,2013-03-05 10:51:00,
2013-03-05 06:00:00,64.0,55.0,30.15,ENE,60,13.0,15.0,73,-99.99,,,-99.99,,2013-03-05 11:00:00,
2013-03-05 06:21:00,64.0,55.0,30.15,ENE,60,13.0,15.0,73,-99.99,,,-99.99,,2013-03-05 11:21:00,
2013-03-05 06:32:00,64.0,55.0,30.15,ENE,60,13.0,15.0,73,-99.99,,,-99.99,,2013-03-05 11:32:00,
2013-03-05 06:41:00,64.0,55.0,30.15,ENE,60,13.0,15.0,73,-99.99,,,-99.99,,2013-03-05 11:41:00,
2013-03-05 06:52:00,64.0,55.0,30.15,ENE,60,13.0,15.0,73,-99.99,,,-99.99,,2013-03-05 11:52:00,
2013-03-05 07:00:00,65.0,58.0,30.15,ENE,60,11.0,13.0,80,-99.99,,,-99.99,,2013-03-05 12:00:00,
2013-03-05 07:22:00,65.0,58.0,30.15,ENE,60,11.0,13.0,80,-99.99,,,-99.99,,2013-03-05 12:22:00,
2013-03-05 07:32:00,65.0,58.0,30.15,ENE,60,11.0,13.0,80,-99.99,,,-99.99,,2013-03-05 12:32:00,
2013-03-05 07:41:00,65.0,58.0,30.15,ENE,60,11.0,13.0,80,-99.99,,,-99.99,,2013-03-05 12:41:00,
2013-03-05 07:52:00,65.0,58.0,30.15,ENE,60,11.0,13.0,80,-99.99,,,-99.99,,2013-03-05 12:52:00,
2013-03-05 08:00:00,68.0,51.0,30.16,SE,130,11.0,14.0,54,-99.99,,,-99.99,,2013-03-05 13:00:00,
2013-03-05 08:21:00,68.0,51.0,30.16,SE,130,11.0,14.0,54,-99.99,,,-99.99,,2013-03-05 13:21:00,
2013-03-05 08:31:00,68.0,51.0,30.16,SE,130,11.0,14.0,54,-99.99,,,-99.99,,2013-03-05 13:31:00,
2013-03-05 08:41:00,68.0,51.0,30.16,SE,130,11.0,14.0,54,-99.99,,,-99.99,,2013-03-05 13:41:00,
2013-03-05 08:51:00,68.0,51.0,30.16,SE,130,11.0,14.0,54,-99.99,,,-99.99,,2013-03-05 13:51:00,
2013-03-05 09:00:00,68.0,52.0,30.18,ESE,110,13.0,15.0,57,-99.99,,,-99.99,,2013-03-05 14:00:00,
2013-03-05 09:21:00,68.0,52.0,30.18,ESE,110,13.0,15.0,57,-99.99,,,-99.99,,2013-03-05 14:21:00,
2013-03-05 09:31:00,68.0,52.0,30.18,ESE,110,13.0,15.0,57,-99.99,,,-99.99,,2013-03-05 14:31:00,
2013-03-05 09:41:00,68.0,52.0,30.18,ESE,110,13.0,15.0,57,-99.99,,,-99.99,,2013-03-05 14:41:00,
2013-03-05 09:52:00,68.0,52.0,30.18,ESE,110,13.0,15.0,57,-99.99,,,-99.99,,2013-03-05 14:52:00,
2013-03-05 10:00:00,69.0,54.0,30.18,SE,130,14.0,16.0,58,-99.99,,,-99.99,,2013-03-05 15:00:00,
2013-03-05 10:21:00,69.0,54.0,30.18,SE,130,14.0,16.0,58,-99.99,,,-99.99,,2013-03-05 15:21:00,
2013-03-05 10:31:00,69.0,54.0,30.18,SE,130,14.0,16.0,58,-99.99,,,-99.99,,2013-03-05 15:31:00,
2013-03-05 10:42:00,69.0,54.0,30.18,SE,130,14.0,16.0,58,-99.99,,,-99.99,,2013-03-05 15:42:00,
2013-03-05 10:51:00,69.0,54.0,30.18,SE,130,14.0,16.0,58,-99.99,,,-99.99,,2013-03-05 15:51:00,
2013-03-05 11:00:00,69.0,53.0,30.18,SE,130,14.0,15.0,55,-99.99,,,-99.99,,2013-03-05 16:00:00,
2013-03-05 11:21:00,69.0,53.0,30.18,SE,130,14.0,15.0,55,-99.99,,,-99.99,,2013-03-05 16:21:00,
2013-03-05 11:31:00,69.0,53.0,30.18,SE,130,14.0,15.0,55,-99.99,,,-99.99,,2013-03-05 16:31:00,
2013-03-05 11:41:00,69.0,53.0,30.18,SE,130,14.0,15.0,55,-99.99,,,-99.99,,2013-03-05 16:41:00,
2013-03-05 11:51:00,69.0,53.0,30.18,SE,130,14.0,15.0,55,-99.99,,,-99.99,,2013-03-05 16:51:00,
2013-03-05 12:00:00,69.0,54.0,30.16,ESE,120,15.0,17.0,58,-99.99,,,-99.99,,2013-03-05 17:00:00,
2013-03-05 12:21:00,69.0,54.0,30.16,ESE,120,15.0,17.0,58,-99.99,,,-99.99,,2013-03-05 17:21:00,
2013-03-05 12:31:00,69.0,54.0,30.16,ESE,120,15.0,17.0,58,-99.99,,,-99.99,,2013-03-05 17:31:00,
2013-03-05 12:41:00,69.0,54.0,30.16,ESE,120,15.0,17.0,58,-99.99,,,-99.99,,2013-03-05 17:41:00,
2013-03-05 12:52:00,69.0,54.0,30.16,ESE,120,15.0,17.0,58,-99.99,,,-99.99,,2013-03-05 17:52:00,
2013-03-05 13:00:00,71.0,56.0,30.14,SE,130,14.0,16.0,61,-99.99,,,-99.99,,2013-03-05 18:00:00,
2013-03-05 13:21:00,71.0,56.0,30.14,SE,130,14.0,16.0,61,-99.99,,,-99.99,,2013-03-05 18:21:00,
2013-03-05 13:31:00,71.0,56.0,30.14,SE,130,14.0,16.0,61,-99.99,,,-99.99,,2013-03-05 18:31:00,
2013-03-05 13:41:00,71.0,56.0,30.14,SE,130,14.0,16.0,61,-99.99,,,-99.99,,2013-03-05 18:41:00,
2013-03-05 13:52:00,71.0,56.0,30.14,SE,130,14.0,16.0,61,-99.99,,,-99.99,,2013-03-05 18:52:00,
2013-03-05 14:00:00,71.0,56.0,30.13,SSE,150,13.0,15.0,59,-99.99,,,-99.99,,2013-03-05 19:00:00,
2013-03-05 14:21:00,71.0,56.0,30.13,SSE,150,13.0,15.0,59,-99.99,,,-99.99,,2013-03-05 19:21:00,
2013-03-05 14:31:00,71.0,56.0,30.13,SSE,150,13.0,15.0,59,-99.99,,,-99.99,,2013-03-05 19:31:00,
2013-03-05 14:41:00,71.0,56.0,30.13,SSE,150,13.0,15.0,59,-99.99,,,-99.99,,2013-03-05 19:41:00,
2013-03-05 14:51:00,71.0,56.0,30.13,SSE,150,13.0,15.0,59,-99.99,,,-99.99,,2013-03-05 19:51:00,
2013-03-05 15:00:00,72.0,56.0,30.11,SE,140,11.0,13.0,57,-99.99,,,-99.99,,2013-03-05 20:00:00,
2013-03-05 15:21:00,72.0,56.0,30.11,SE,140,11.0,13.0,57,-99.99,,,-99.99,,2013-03-05 20:21:00,
2013-03-05 15:31:00,72.0,56.0,30.11,SE,140,11.0,13.0,57,-99.99,,,-99.99,,2013-03-05 20:31:00,
2013-03-05 15:41:00,72.0,56.0,30.11,SE,140,11.0,13.0,57,-99.99,,,-99.99,,2013-03-05 20:41:00,
2013-03-05 15:52:00,72.0,56.0,30.11,SE,140,11.0,13.0,57,-99.99,,,-99.99,,2013-03-05 20:52:00,
2013-03-05 16:00:00,72.0,56.0,30.12,SE,130,7.0,8.0,58,-99.99,,,-99.99,,2013-03-05 21:00:00,
2013-03-05 16:21:00,72.0,56.0,30.12,SE,130,7.0,8.0,58,-99.99,,,-99.99,,2013-03-05 21:21:00,
2013-03-05 16:31:00,72.0,56.0,30.12,SE,130,7.0,8.0,58,-99.99,,,-99.99,,2013-03-05 21:31:00,
2013-03-05 16:41:00,72.0,56.0,30.12,SE,130,7.0,8.0,58,-99.99,,,-99.99,,2013-03-05 21:41:00,
2013-03-05 16:52:00,72.0,56.0,30.12,SE,130,7.0,8.0,58,-99.99,,,-99.99,,2013-03-05 21:52:00,
2013-03-05 17:00:00,73.0,56.0,30.11,SE,140,10.0,11.0,56,-99.99,,,-99.99,,2013-03-05 22:00:00,
2013-03-05 17:21:00,73.0,56.0,30.11,SE,140,10.0,11.0,56,-99.99,,,-99.99,,2013-03-05 22:21:00,
2013-03-05 17:31:00,73.0,56.0,30.11,SE,140,10.0,11.0,56,-99.99,,,-99.99,,2013-03-05 22:31:00,
2013-03-05 17:41:00,73.0,56.0,30.11,SE,140,10.0,11.0,56,-99.99,,,-99.99,,2013-03-05 22:41:00,
2013-03-05 17:51:00,73.0,56.0,30.11,SE,140,10.0,11.0,56,-99.99,,,-99.99,,2013-03-05 22:51:00,
2013-03-05 18:00:00,72.0,54.0,30.13,SE,140,5.0,6.0,54,-99.99,,,-99.99,,2013-03-05 23:00:00,
2013-03-05 18:21:00,72.0,54.0,30.13,SE,140,5.0,6.0,54,-99.99,,,-99.99,,2013-03-05 23:21:00,
2013-03-05 18:32:00,72.0,54.0,30.13,SE,140,5.0,6.0,54,-99.99,,,-99.99,,2013-03-05 23:32:00,
2013-03-05 18:41:00,72.0,54.0,30.13,SE,140,5.0,6.0,54,-99.99,,,-99.99,,2013-03-05 23:41:00,
2013-03-05 18:52:00,72.0,54.0,30.13,SE,140,5.0,6.0,54,-99.99,,,-99.99,,2013-03-05 23:52:00,
2013-03-05 19:00:00,70.0,54.0,30.13,ESE,110,7.0,7.0,56,-99.99,,,-99.99,,2013-03-06 00:00:00,
2013-03-05 19:21:00,70.0,54.0,30.13,ESE,110,7.0,7.0,56,-99.99,,,-99.99,,2013-03-06 00:21:00,
2013-03-05 19:32:00,70.0,54.0,30.13,ESE,110,7.0,7.0,56,-99.99,,,-99.99,,2013-03-06 00:32:00,
2013-03-05 19:41:00,70.0,54.0,30.13,ESE,110,7.0,7.0,56,-99.99,,,-99.99,,2013-03-06 00:41:00,
2013-03-05 19:51:00,70.0,54.0,30.13,ESE,110,7.0,7.0,56,-99.99,,,-99.99,,2013-03-06 00:51:00,
2013-03-05 21:00:00,69.0,53.0,30.14,East,100,7.0,8.0,55,-99.99,,,-99.99,,2013-03-06 02:00:00,
2013-03-05 21:41:00,69.0,53.0,30.14,East,100,7.0,8.0,55,-99.99,,,-99.99,,2013-03-06 02:41:00,
2013-03-05 21:51:00,69.0,53.0,30.14,East,100,7.0,8.0,55,-99.99,,,-99.99,,2013-03-06 02:51:00,
2013-03-05 22:00:00,69.0,52.0,30.16,North,0,0.0,0.0,55,-99.99,,,-99.99,,2013-03-06 03:00:00,
2013-03-05 22:21:00,69.0,52.0,30.16,North,0,0.0,0.0,55,-99.99,,,-99.99,,2013-03-06 03:21:00,
2013-03-05 22:31:00,69.0,52.0,30.16,North,0,0.0,0.0,55,-99.99,,,-99.99,,2013-03-06 03:31:00,
2013-03-05 22:41:00,69.0,52.0,30.16,North,0,0.0,0.0,55,-99.99,,,-99.99,,2013-03-06 03:41:00,
2013-03-05 22:52:00,69.0,52.0,30.16,North,0,0.0,0.0,55,-99.99,,,-99.99,,2013-03-06 03:52:00,
2013-03-05 23:00:00,69.0,54.0,30.14,SSE,150,6.0,8.0,58,-99.99,,,-99.99,,2013-03-06 04:00:00,
2013-03-05 23:21:00,69.0,54.0,30.14,SSE,150,6.0,8.0,58,-99.99,,,-99.99,,2013-03-06 04:21:00,
2013-03-05 23:31:00,69.0,54.0,30.14,SSE,150,6.0,8.0,58,-99.99,,,-99.99,,2013-03-06 04:31:00,
2013-03-05 23:41:00,69.0,54.0,30.14,SSE,150,6.0,8.0,58,-99.99,,,-99.99,,2013-03-06 04:41:00,
2013-03-05 23:51:00,69.0,54.0,30.14,SSE,150,6.0,8.0,58,-99.99,,,-99.99,,2013-03-06 04:51:00,